Time,TemperatureF,DewpointF,PressureIn,WindDirection,WindDirectionDegrees,WindSpeedMPH,WindSpeedGustMPH,Humidity,HourlyPrecipIn,Conditions,Clouds,dailyrainin,SoftwareType,DateUTC
2013-12-27 00:04:00,32.0,-3.6,30.13,SW,225,0.0,0.0,21,0.00,RA,,0.00,WeatherDisplay:10.37,2013-12-27 08:04:00,
2013-12-27 00:09:00,32.2,-3.5,30.13,SW,225,0.0,0.0,21,0.00,RA,,0.00,WeatherDisplay:10.37,2013-12-27 08:09:00,
2013-12-27 00:14:00,32.0,-3.6,30.13,SW,225,1.2,0.0,21,0.00,CLR,,0.00,WeatherDisplay:10.37,2013-12-27 08:14:00,
2013-12-27 00:19:00,32.0,-3.6,30.13,SW,225,0.0,0.0,21,0.00,CLR,,0.00,WeatherDisplay:10.37,2013-12-27 08:19:00,
2013-12-27 00:24:00,31.8,-3.8,30.13,SW,225,1.2,0.0,21,0.00,CLR,,0.00,WeatherDisplay:10.37,2013-12-27 08:24:00,
2013-12-27 00:29:00,31.6,-3.9,30.13,SW,225,0.0,0.0,21,0.00,CLR,,0.00,WeatherDisplay:10.37,2013-12-27 08:29:00,
2013-12-27 00:34:00,31.6,-3.9,30.12,SW,225,0.0,0.0,21,0.00,CLR,,0.00,WeatherDisplay:10.37,2013-12-27 08:34:00,
2013-12-27 00:39:00,31.5,-4.1,30.12,SW,225,0.0,0.0,21,0.00,CLR,,0.00,WeatherDisplay:10.37,2013-12-27 08:39:00,
2013-12-27 00:44:00,31.3,-4.2,30.12,SW,225,0.0,0.0,21,0.00,CLR,,0.00,WeatherDisplay:10.37,2013-12-27 08:44:00,
2013-12-27 00:49:00,31.3,-4.2,30.11,SW,225,0.0,0.0,21,0.00,CLR,,0.00,WeatherDisplay:10.37,2013-12-27 08:49:00,
2013-12-27 00:54:00,31.3,-4.2,30.11,SW,225,0.0,0.0,21,0.00,CLR,,0.00,WeatherDisplay:10.37,2013-12-27 08:54:00,
2013-12-27 00:59:00,31.3,-4.2,30.12,SW,225,1.2,0.0,21,0.00,CLR,,0.00,WeatherDisplay:10.37,2013-12-27 08:59:00,
2013-12-27 01:04:00,31.3,-4.2,30.12,SW,225,1.2,0.0,21,0.00,CLR,,0.00,WeatherDisplay:10.37,2013-12-27 09:04:00,
2013-12-27 01:09:00,31.1,-4.4,30.12,SW,225,0.0,0.0,21,0.00,CLR,,0.00,WeatherDisplay:10.37,2013-12-27 09:09:00,
2013-12-27 01:14:00,31.3,-4.2,30.12,SW,225,1.6,1.6,21,0.00,CLR,,0.00,WeatherDisplay:10.37,2013-12-27 09:14:00,
2013-12-27 01:19:00,31.5,-4.1,30.12,SW,225,0.0,0.0,21,0.00,CLR,,0.00,WeatherDisplay:10.37,2013-12-27 09:19:00,
2013-12-27 01:24:00,31.5,-4.1,30.12,SW,225,0.0,0.0,21,0.00,CLR,,0.00,WeatherDisplay:10.37,2013-12-27 09:24:00,
2013-12-27 01:29:00,31.5,-4.1,30.12,SW,225,0.0,0.0,21,0.00,CLR,,0.00,WeatherDisplay:10.37,2013-12-27 09:29:00,
2013-12-27 01:34:00,31.5,-4.1,30.12,SW,225,0.0,0.0,21,0.00,CLR,,0.00,WeatherDisplay:10.37,2013-12-27 09:34:00,
2013-12-27 01:39:00,31.5,-4.1,30.12,SW,225,1.2,0.0,21,0.00,CLR,,0.00,WeatherDisplay:10.37,2013-12-27 09:39:00,
2013-12-27 01:44:00,31.5,-4.1,30.12,SW,225,1.2,0.0,21,0.00,CLR,,0.00,WeatherDisplay:10.37,2013-12-27 09:44:00,
2013-12-27 01:49:00,31.6,-3.9,30.12,SW,225,0.0,0.0,21,0.00,CLR,,0.00,WeatherDisplay:10.37,2013-12-27 09:49:00,
2013-12-27 01:54:00,31.6,-3.9,30.12,SW,225,0.0,0.0,21,0.00,CLR,,0.00,WeatherDisplay:10.37,2013-12-27 09:54:00,
2013-12-27 01:59:00,31.6,-3.9,30.12,SW,225,0.0,0.0,21,0.00,CLR,,0.00,WeatherDisplay:10.37,2013-12-27 09:59:00,
2013-12-27 02:04:00,31.6,-3.9,30.12,SW,225,0.0,0.0,21,0.00,CLR,,0.00,WeatherDisplay:10.37,2013-12-27 10:04:00,
2013-12-27 02:09:00,31.6,-3.9,30.13,SW,225,0.0,0.0,21,0.00,CLR,,0.00,WeatherDisplay:10.37,2013-12-27 10:09:00,
2013-12-27 02:14:00,31.5,-4.1,30.12,SW,225,0.0,0.0,21,0.00,CLR,,0.00,WeatherDisplay:10.37,2013-12-27 10:14:00,
2013-12-27 02:19:00,31.3,-4.2,30.13,SW,225,0.0,0.0,21,0.00,CLR,,0.00,WeatherDisplay:10.37,2013-12-27 10:19:00,
2013-12-27 02:24:00,31.3,-4.2,30.13,West,270,1.2,0.0,21,0.00,CLR,,0.00,WeatherDisplay:10.37,2013-12-27 10:24:00,
2013-12-27 02:29:00,31.5,-4.1,30.13,West,270,0.0,0.0,21,0.00,CLR,,0.00,WeatherDisplay:10.37,2013-12-27 10:29:00,
2013-12-27 02:34:00,31.5,-4.1,30.13,South,180,1.2,0.0,21,0.00,CLR,,0.00,WeatherDisplay:10.37,2013-12-27 10:34:00,
2013-12-27 02:39:00,31.3,-4.2,30.14,SW,225,0.0,0.0,21,0.00,CLR,,0.00,WeatherDisplay:10.37,2013-12-27 10:39:00,
2013-12-27 02:44:00,31.3,-4.2,30.14,West,270,0.0,0.0,21,0.00,CLR,,0.00,WeatherDisplay:10.37,2013-12-27 10:44:00,
2013-12-27 02:49:00,31.1,-4.4,30.14,West,270,0.0,0.0,21,0.00,CLR,,0.00,WeatherDisplay:10.37,2013-12-27 10:49:00,
2013-12-27 02:54:00,31.1,-4.4,30.14,West,270,0.0,0.0,21,0.00,CLR,,0.00,WeatherDisplay:10.37,2013-12-27 10:54:00,
2013-12-27 02:59:00,31.1,-4.4,30.14,West,270,0.0,0.0,21,0.00,CLR,,0.00,WeatherDisplay:10.37,2013-12-27 10:59:00,
2013-12-27 03:04:00,31.1,-4.4,30.14,SW,225,0.0,0.0,21,0.00,CLR,,0.00,WeatherDisplay:10.37,2013-12-27 11:04:00,
2013-12-27 03:09:00,31.1,-4.4,30.14,SW,225,0.0,0.0,21,0.00,CLR,,0.00,WeatherDisplay:10.37,2013-12-27 11:09:00,
2013-12-27 03:14:00,31.1,-4.4,30.13,SW,225,0.0,0.0,21,0.00,CLR,,0.00,WeatherDisplay:10.37,2013-12-27 11:14:00,
2013-12-27 03:19:00,30.9,-4.5,30.14,NW,315,1.2,0.0,21,0.00,CLR,,0.00,WeatherDisplay:10.37,2013-12-27 11:19:00,
2013-12-27 03:24:00,30.9,-4.5,30.13,SW,225,0.0,0.0,21,0.00,CLR,,0.00,WeatherDisplay:10.37,2013-12-27 11:24:00,
2013-12-27 03:29:00,30.7,-4.7,30.14,South,180,1.2,0.0,21,0.00,CLR,,0.00,WeatherDisplay:10.37,2013-12-27 11:29:00,
2013-12-27 03:34:00,30.7,-4.7,30.14,SW,225,0.0,0.0,21,0.00,CLR,,0.00,WeatherDisplay:10.37,2013-12-27 11:34:00,
2013-12-27 03:39:00,30.7,-4.7,30.14,SW,225,1.2,0.0,21,0.00,CLR,,0.00,WeatherDisplay:10.37,2013-12-27 11:39:00,
2013-12-27 03:44:00,30.9,-4.5,30.14,SW,225,1.2,0.0,21,0.00,CLR,,0.00,WeatherDisplay:10.37,2013-12-27 11:44:00,
2013-12-27 03:49:00,31.1,-4.4,30.14,SW,225,1.2,0.0,21,0.00,CLR,,0.00,WeatherDisplay:10.37,2013-12-27 11:49:00,
2013-12-27 03:54:00,31.1,-4.4,30.13,SW,225,1.2,0.0,21,0.00,CLR,,0.00,WeatherDisplay:10.37,2013-12-27 11:54:00,
2013-12-27 03:59:00,31.1,-4.4,30.13,South,180,1.2,0.0,21,0.00,CLR,,0.00,WeatherDisplay:10.37,2013-12-27 11:59:00,
2013-12-27 04:04:00,31.1,-4.4,30.14,South,180,0.0,0.0,21,0.00,CLR,,0.00,WeatherDisplay:10.37,2013-12-27 12:04:00,
2013-12-27 04:09:00,30.9,-4.5,30.13,South,180,0.0,0.0,21,0.00,CLR,,0.00,WeatherDisplay:10.37,2013-12-27 12:09:00,
2013-12-27 04:14:00,30.9,-4.5,30.13,South,180,0.0,0.0,21,0.00,CLR,,0.00,WeatherDisplay:10.37,2013-12-27 12:14:00,
2013-12-27 04:19:00,31.1,-4.4,30.13,South,180,0.0,0.0,21,0.00,CLR,,0.00,WeatherDisplay:10.37,2013-12-27 12:19:00,
2013-12-27 04:24:00,31.1,-4.4,30.12,South,180,0.0,0.0,21,0.00,CLR,,0.00,WeatherDisplay:10.37,2013-12-27 12:24:00,
2013-12-27 04:29:00,31.1,-4.4,30.13,NW,315,1.2,0.0,21,0.00,CLR,,0.00,WeatherDisplay:10.37,2013-12-27 12:29:00,
2013-12-27 04:34:00,31.3,-4.2,30.13,SW,225,0.0,0.0,21,0.00,CLR,,0.00,WeatherDisplay:10.37,2013-12-27 12:34:00,
2013-12-27 04:39:00,31.1,-4.4,30.13,SW,225,1.2,0.0,21,0.00,CLR,,0.00,WeatherDisplay:10.37,2013-12-27 12:39:00,
2013-12-27 04:44:00,31.1,-4.4,30.13,South,180,0.0,0.0,21,0.00,CLR,,0.00,WeatherDisplay:10.37,2013-12-27 12:44:00,
2013-12-27 04:49:00,30.9,-4.5,30.13,SW,225,0.0,0.0,21,0.00,CLR,,0.00,WeatherDisplay:10.37,2013-12-27 12:49:00,
2013-12-27 04:54:00,31.1,-4.4,30.13,West,270,1.2,0.0,21,0.00,CLR,,0.00,WeatherDisplay:10.37,2013-12-27 12:54:00,
2013-12-27 04:59:00,31.1,-4.4,30.13,NW,315,0.0,0.0,21,0.00,CLR,,0.00,WeatherDisplay:10.37,2013-12-27 12:59:00,
2013-12-27 05:04:00,31.3,-4.2,30.12,West,270,0.0,0.0,21,0.00,CLR,,0.00,WeatherDisplay:10.37,2013-12-27 13:04:00,
2013-12-27 05:09:00,31.1,-4.4,30.12,South,180,0.0,0.0,21,0.00,CLR,,0.00,WeatherDisplay:10.37,2013-12-27 13:09:00,
2013-12-27 05:14:00,31.1,-4.4,30.12,South,180,0.0,0.0,21,0.00,CLR,,0.00,WeatherDisplay:10.37,2013-12-27 13:14:00,
2013-12-27 05:19:00,31.1,-4.4,30.11,South,180,0.0,0.0,21,0.00,CLR,,0.00,WeatherDisplay:10.37,2013-12-27 13:19:00,
2013-12-27 05:24:00,31.1,-4.4,30.11,South,180,0.0,0.0,21,0.00,CLR,,0.00,WeatherDisplay:10.37,2013-12-27 13:24:00,
2013-12-27 05:29:00,30.9,-4.5,30.11,South,180,0.0,0.0,21,0.00,CLR,,0.00,WeatherDisplay:10.37,2013-12-27 13:29:00,
2013-12-27 05:34:00,30.9,-4.5,30.12,South,180,0.0,0.0,21,0.00,CLR,,0.00,WeatherDisplay:10.37,2013-12-27 13:34:00,
2013-12-27 05:39:00,30.9,-4.5,30.11,South,180,0.0,0.0,21,0.00,CLR,,0.00,WeatherDisplay:10.37,2013-12-27 13:39:00,
2013-12-27 05:44:00,30.9,-4.5,30.11,South,180,0.0,0.0,21,0.00,CLR,,0.00,WeatherDisplay:10.37,2013-12-27 13:44:00,
2013-12-27 05:49:00,31.1,-4.4,30.11,South,180,0.0,0.0,21,0.00,CLR,,0.00,WeatherDisplay:10.37,2013-12-27 13:49:00,
2013-12-27 05:54:00,31.1,-4.4,30.11,South,180,0.0,0.0,21,0.00,CLR,,0.00,WeatherDisplay:10.37,2013-12-27 13:54:00,
2013-12-27 05:59:00,30.9,-4.5,30.11,South,180,0.0,0.0,21,0.00,CLR,,0.00,WeatherDisplay:10.37,2013-12-27 13:59:00,
2013-12-27 06:04:00,31.1,-4.4,30.11,South,180,0.0,0.0,21,0.00,CLR,,0.00,WeatherDisplay:10.37,2013-12-27 14:04:00,
2013-12-27 06:09:00,31.3,-4.2,30.11,South,180,0.0,0.0,21,0.00,CLR,,0.00,WeatherDisplay:10.37,2013-12-27 14:09:00,
2013-12-27 06:14:00,31.1,-4.4,30.11,South,180,0.0,0.0,21,0.00,CLR,,0.00,WeatherDisplay:10.37,2013-12-27 14:14:00,
2013-12-27 06:19:00,31.1,-4.4,30.11,South,180,0.0,0.0,21,0.00,CLR,,0.00,WeatherDisplay:10.37,2013-12-27 14:19:00,
2013-12-27 06:24:00,31.3,-4.2,30.11,South,180,0.0,0.0,21,0.00,CLR,,0.00,WeatherDisplay:10.37,2013-12-27 14:24:00,
2013-12-27 06:29:00,31.5,-4.1,30.11,South,180,0.0,0.0,21,0.00,CLR,,0.00,WeatherDisplay:10.37,2013-12-27 14:29:00,
2013-12-27 06:34:00,31.6,-3.9,30.11,South,180,0.0,0.0,21,0.00,CLR,,0.00,WeatherDisplay:10.37,2013-12-27 14:34:00,
2013-12-27 06:39:00,31.8,-3.8,30.11,South,180,0.0,0.0,21,0.00,CLR,,0.00,WeatherDisplay:10.37,2013-12-27 14:39:00,
2013-12-27 06:44:00,31.6,-3.9,30.11,South,180,0.0,0.0,21,0.00,CLR,,0.00,WeatherDisplay:10.37,2013-12-27 14:44:00,
2013-12-27 06:49:00,31.8,-3.8,30.11,South,180,0.0,0.0,21,0.00,CLR,,0.00,WeatherDisplay:10.37,2013-12-27 14:49:00,
2013-12-27 06:54:00,31.8,-3.8,30.12,South,180,0.0,0.0,21,0.00,CLR,,0.00,WeatherDisplay:10.37,2013-12-27 14:54:00,
2013-12-27 06:59:00,32.0,-3.6,30.12,South,180,0.0,0.0,21,0.00,CLR,,0.00,WeatherDisplay:10.37,2013-12-27 14:59:00,
2013-12-27 07:04:00,32.0,-3.6,30.13,South,180,0.0,0.0,21,0.00,CLR,,0.00,WeatherDisplay:10.37,2013-12-27 15:04:00,
2013-12-27 07:09:00,32.0,-3.6,30.13,South,180,0.0,0.0,21,0.00,CLR,,0.00,WeatherDisplay:10.37,2013-12-27 15:09:00,
2013-12-27 07:14:00,32.0,-3.6,30.13,South,180,0.0,0.0,21,0.00,CLR,,0.00,WeatherDisplay:10.37,2013-12-27 15:14:00,
2013-12-27 07:19:00,32.0,-3.6,30.12,South,180,0.0,0.0,21,0.00,CLR,,0.00,WeatherDisplay:10.37,2013-12-27 15:19:00,
2013-12-27 07:24:00,32.2,-3.5,30.12,South,180,0.0,0.0,21,0.00,CLR,,0.00,WeatherDisplay:10.37,2013-12-27 15:24:00,
2013-12-27 07:29:00,32.4,-3.3,30.12,South,180,0.0,0.0,21,0.00,CLR,,0.00,WeatherDisplay:10.37,2013-12-27 15:29:00,
2013-12-27 07:34:00,32.5,-3.2,30.12,South,180,0.0,0.0,21,0.00,CLR,,0.00,WeatherDisplay:10.37,2013-12-27 15:34:00,
2013-12-27 07:39:00,32.5,-3.2,30.11,South,180,0.0,0.0,21,0.00,CLR,,0.00,WeatherDisplay:10.37,2013-12-27 15:39:00,
2013-12-27 07:44:00,32.7,-3.0,30.11,South,180,0.0,0.0,21,0.00,CLR,,0.00,WeatherDisplay:10.37,2013-12-27 15:44:00,
2013-12-27 07:49:00,32.7,32.7,30.12,South,180,0.0,0.0,100,0.00,,,0.00,WeatherDisplay:10.37,2013-12-27 15:49:00,
2013-12-27 07:54:00,32.7,32.7,30.12,South,180,0.0,0.0,100,0.00,,,0.00,WeatherDisplay:10.37,2013-12-27 15:54:00,
2013-12-27 07:59:00,32.7,32.7,30.12,South,180,0.0,0.0,100,0.00,,,0.00,WeatherDisplay:10.37,2013-12-27 15:59:00,
2013-12-27 08:04:00,32.9,32.9,30.12,South,180,0.0,0.0,100,0.00,,,0.00,WeatherDisplay:10.37,2013-12-27 16:04:00,
2013-12-27 08:09:00,33.1,33.1,30.12,South,180,0.0,0.0,100,0.00,,,0.00,WeatherDisplay:10.37,2013-12-27 16:09:00,
2013-12-27 08:14:00,33.1,33.1,30.13,South,180,0.0,0.0,100,0.00,,,0.00,WeatherDisplay:10.37,2013-12-27 16:14:00,
2013-12-27 08:19:00,33.1,33.1,30.13,South,180,0.0,0.0,100,0.00,,,0.00,WeatherDisplay:10.37,2013-12-27 16:19:00,
2013-12-27 08:24:00,33.4,33.4,30.14,South,180,0.0,0.0,100,0.00,,,0.00,WeatherDisplay:10.37,2013-12-27 16:24:00,
2013-12-27 08:29:00,33.8,33.8,30.15,South,180,0.0,0.0,100,0.00,,,0.00,WeatherDisplay:10.37,2013-12-27 16:29:00,
2013-12-27 08:34:00,34.0,34.0,30.14,South,180,0.0,0.0,100,0.00,,,0.00,WeatherDisplay:10.37,2013-12-27 16:34:00,
2013-12-27 08:39:00,34.2,34.2,30.15,West,270,3.5,3.5,100,0.00,,,0.00,WeatherDisplay:10.37,2013-12-27 16:39:00,
2013-12-27 08:44:00,34.3,34.3,30.15,NE,45,1.2,0.0,100,0.00,,,0.00,WeatherDisplay:10.37,2013-12-27 16:44:00,
2013-12-27 08:49:00,34.7,34.7,30.15,East,90,1.2,1.6,100,0.00,,,0.00,WeatherDisplay:10.37,2013-12-27 16:49:00,
2013-12-27 08:54:00,34.5,34.5,30.16,NW,315,1.2,0.0,100,0.00,,,0.00,WeatherDisplay:10.37,2013-12-27 16:54:00,
2013-12-27 08:59:00,34.7,34.7,30.16,North,0,1.2,0.0,100,0.00,,,0.00,WeatherDisplay:10.37,2013-12-27 16:59:00,
2013-12-27 09:04:00,34.9,34.9,30.16,NW,315,1.2,0.0,100,0.00,,,0.00,WeatherDisplay:10.37,2013-12-27 17:04:00,
2013-12-27 09:09:00,35.1,35.1,30.17,West,270,1.2,0.0,100,0.00,,,0.00,WeatherDisplay:10.37,2013-12-27 17:09:00,
2013-12-27 09:14:00,35.2,35.2,30.17,SE,135,2.3,2.3,100,0.00,,,0.00,WeatherDisplay:10.37,2013-12-27 17:14:00,
2013-12-27 09:19:00,35.1,35.1,30.18,North,0,0.0,0.0,100,0.00,,,0.00,WeatherDisplay:10.37,2013-12-27 17:19:00,
2013-12-27 09:24:00,35.2,35.2,30.18,SW,225,1.2,0.0,100,0.00,,,0.00,WeatherDisplay:10.37,2013-12-27 17:24:00,
2013-12-27 09:29:00,35.2,35.2,30.18,SW,225,1.2,0.0,100,0.00,,,0.00,WeatherDisplay:10.37,2013-12-27 17:29:00,
2013-12-27 09:34:00,35.2,35.2,30.19,West,270,1.2,0.0,100,0.00,,,0.00,WeatherDisplay:10.37,2013-12-27 17:34:00,
2013-12-27 09:39:00,35.8,35.8,30.19,West,270,0.7,0.0,100,0.00,,,0.00,WeatherDisplay:10.37,2013-12-27 17:39:00,
2013-12-27 09:44:00,36.3,36.3,30.19,NW,315,0.0,0.0,100,0.00,,,0.00,WeatherDisplay:10.37,2013-12-27 17:44:00,
2013-12-27 09:49:00,36.9,36.9,30.19,North,0,1.2,0.0,100,0.00,,,0.00,WeatherDisplay:10.37,2013-12-27 17:49:00,
2013-12-27 09:54:00,37.2,37.2,30.20,North,0,1.2,0.0,100,0.00,,,0.00,WeatherDisplay:10.37,2013-12-27 17:54:00,
2013-12-27 09:59:00,37.4,37.4,30.19,South,180,1.2,1.2,100,0.00,,,0.00,WeatherDisplay:10.37,2013-12-27 17:59:00,
2013-12-27 10:04:00,37.4,37.4,30.19,NW,315,1.2,1.2,100,0.00,,,0.00,WeatherDisplay:10.37,2013-12-27 18:04:00,
2013-12-27 10:09:00,37.6,37.6,30.20,NW,315,1.2,0.0,100,0.00,,,0.00,WeatherDisplay:10.37,2013-12-27 18:09:00,
2013-12-27 10:14:00,37.8,37.8,30.20,South,180,1.2,0.0,100,0.00,,,0.00,WeatherDisplay:10.37,2013-12-27 18:14:00,
2013-12-27 10:19:00,37.9,37.9,30.19,South,180,3.5,0.0,100,0.00,,,0.00,WeatherDisplay:10.37,2013-12-27 18:19:00,
2013-12-27 10:24:00,38.3,38.3,30.19,NW,315,2.3,2.3,100,0.00,,,0.00,WeatherDisplay:10.37,2013-12-27 18:24:00,
2013-12-27 10:29:00,39.0,39.0,30.18,South,180,1.2,0.0,100,0.00,,,0.00,WeatherDisplay:10.37,2013-12-27 18:29:00,
2013-12-27 10:34:00,39.4,39.4,30.18,South,180,4.5,4.5,100,0.00,,,0.00,WeatherDisplay:10.37,2013-12-27 18:34:00,
2013-12-27 10:39:00,39.9,39.9,30.19,North,0,3.5,0.0,100,0.00,,,0.00,WeatherDisplay:10.37,2013-12-27 18:39:00,
2013-12-27 10:44:00,40.8,40.8,30.18,West,270,3.5,0.0,100,0.00,,,0.00,WeatherDisplay:10.37,2013-12-27 18:44:00,
2013-12-27 10:49:00,41.4,41.4,30.18,NE,45,1.2,0.0,100,0.00,,,0.00,WeatherDisplay:10.37,2013-12-27 18:49:00,
2013-12-27 10:54:00,41.7,41.7,30.19,East,90,1.2,0.0,100,0.00,,,0.00,WeatherDisplay:10.37,2013-12-27 18:54:00,
2013-12-27 10:59:00,42.3,42.3,30.18,West,270,1.2,0.0,100,0.00,,,0.00,WeatherDisplay:10.37,2013-12-27 18:59:00,
2013-12-27 11:04:00,42.8,42.8,30.18,NE,45,2.3,2.3,100,0.00,,,0.00,WeatherDisplay:10.37,2013-12-27 19:04:00,
2013-12-27 11:09:00,43.2,43.2,30.18,South,180,2.3,2.3,100,0.00,,,0.00,WeatherDisplay:10.37,2013-12-27 19:09:00,
2013-12-27 11:14:00,43.3,43.3,30.19,South,180,1.2,0.0,100,0.00,,,0.00,WeatherDisplay:10.37,2013-12-27 19:14:00,
2013-12-27 11:19:00,43.3,43.3,30.19,NE,45,1.6,1.6,100,0.00,,,0.00,WeatherDisplay:10.37,2013-12-27 19:19:00,
2013-12-27 11:24:00,43.9,43.9,30.19,East,90,1.2,0.0,100,0.00,,,0.00,WeatherDisplay:10.37,2013-12-27 19:24:00,
2013-12-27 11:29:00,44.6,44.6,30.19,East,90,0.0,0.0,100,0.00,,,0.00,WeatherDisplay:10.37,2013-12-27 19:29:00,
2013-12-27 11:34:00,45.0,45.0,30.18,East,90,1.2,0.0,100,0.00,,,0.00,WeatherDisplay:10.37,2013-12-27 19:34:00,
2013-12-27 11:39:00,45.3,45.3,30.18,NE,45,1.2,0.0,100,0.00,,,0.00,WeatherDisplay:10.37,2013-12-27 19:39:00,
2013-12-27 11:44:00,45.7,45.7,30.18,North,0,0.0,0.0,100,0.00,,,0.00,WeatherDisplay:10.37,2013-12-27 19:44:00,
2013-12-27 11:49:00,45.9,45.9,30.17,NE,45,1.2,1.2,100,0.00,,,0.00,WeatherDisplay:10.37,2013-12-27 19:49:00,
2013-12-27 11:54:00,45.7,45.7,30.17,West,270,1.2,0.0,100,0.00,,,0.00,WeatherDisplay:10.37,2013-12-27 19:54:00,
2013-12-27 11:59:00,46.0,46.0,30.17,SW,225,1.2,0.0,100,0.00,,,0.00,WeatherDisplay:10.37,2013-12-27 19:59:00,
2013-12-27 12:04:00,46.8,46.8,30.16,SW,225,0.0,0.0,100,0.00,CLR,,0.00,WeatherDisplay:10.37,2013-12-27 20:04:00,
2013-12-27 12:09:00,47.1,47.1,30.16,West,270,1.2,0.0,100,0.00,CLR,,0.00,WeatherDisplay:10.37,2013-12-27 20:09:00,
2013-12-27 12:14:00,47.8,47.8,30.16,South,180,1.2,0.0,100,0.00,CLR,,0.00,WeatherDisplay:10.37,2013-12-27 20:14:00,
2013-12-27 12:19:00,48.9,48.9,30.15,NW,315,1.2,0.0,100,0.00,CLR,,0.00,WeatherDisplay:10.37,2013-12-27 20:19:00,
2013-12-27 12:24:00,49.3,49.3,30.14,NE,45,1.2,0.0,100,0.00,CLR,,0.00,WeatherDisplay:10.37,2013-12-27 20:24:00,
2013-12-27 12:29:00,49.6,49.6,30.15,NE,45,0.0,0.0,100,0.00,CLR,,0.00,WeatherDisplay:10.37,2013-12-27 20:29:00,
2013-12-27 12:34:00,49.8,49.8,30.14,West,270,1.2,0.0,100,0.00,CLR,,0.00,WeatherDisplay:10.37,2013-12-27 20:34:00,
2013-12-27 12:39:00,49.6,49.6,30.14,SW,225,2.3,0.0,100,0.00,CLR,,0.00,WeatherDisplay:10.37,2013-12-27 20:39:00,
2013-12-27 12:44:00,49.6,49.6,30.14,West,270,1.2,1.2,100,0.00,CLR,,0.00,WeatherDisplay:10.37,2013-12-27 20:44:00,
2013-12-27 12:49:00,49.5,49.5,30.13,South,180,1.2,0.0,100,0.00,CLR,,0.00,WeatherDisplay:10.37,2013-12-27 20:49:00,
2013-12-27 12:54:00,49.1,49.1,30.14,NW,315,1.2,0.0,100,0.00,CLR,,0.00,WeatherDisplay:10.37,2013-12-27 20:54:00,
2013-12-27 12:59:00,48.7,48.7,30.14,SW,225,2.3,0.0,100,0.00,CLR,,0.00,WeatherDisplay:10.37,2013-12-27 20:59:00,
2013-12-27 13:04:00,48.6,48.6,30.14,South,180,3.5,3.5,100,0.00,CLR,,0.00,WeatherDisplay:10.37,2013-12-27 21:04:00,
2013-12-27 13:09:00,48.7,3.1,30.15,SW,225,3.8,3.8,15,0.00,CLR,,0.00,WeatherDisplay:10.37,2013-12-27 21:09:00,
2013-12-27 13:14:00,48.9,3.2,30.16,West,270,2.3,2.3,15,0.00,CLR,,0.00,WeatherDisplay:10.37,2013-12-27 21:14:00,
2013-12-27 13:19:00,49.6,3.8,30.15,NW,315,5.8,0.0,15,0.00,CLR,,0.00,WeatherDisplay:10.37,2013-12-27 21:19:00,
2013-12-27 13:24:00,52.0,2.6,30.15,South,180,6.9,6.9,13,0.00,CLR,,0.00,WeatherDisplay:10.37,2013-12-27 21:24:00,
2013-12-27 13:29:00,53.8,4.0,30.16,South,180,6.9,6.9,13,0.00,CLR,,0.00,WeatherDisplay:10.37,2013-12-27 21:29:00,
2013-12-27 13:34:00,55.4,5.3,30.16,SW,225,9.2,9.2,13,0.00,CLR,,0.00,WeatherDisplay:10.37,2013-12-27 21:34:00,
2013-12-27 13:39:00,56.8,6.4,30.16,West,270,6.9,6.9,13,0.00,CLR,,0.00,WeatherDisplay:10.37,2013-12-27 21:39:00,
2013-12-27 13:44:00,57.9,7.3,30.16,West,270,9.2,9.2,13,0.00,CLR,,0.00,WeatherDisplay:10.37,2013-12-27 21:44:00,
2013-12-27 13:49:00,56.3,6.0,30.16,SSW,202,8.1,8.1,13,0.00,CLR,,0.00,WeatherDisplay:10.37,2013-12-27 21:49:00,
2013-12-27 13:54:00,54.9,4.8,30.16,SW,225,12.7,12.7,13,0.00,CLR,,0.00,WeatherDisplay:10.37,2013-12-27 21:54:00,
2013-12-27 13:59:00,55.4,5.3,30.16,SW,225,8.1,8.1,13,0.00,CLR,,0.00,WeatherDisplay:10.37,2013-12-27 21:59:00,
2013-12-27 14:04:00,55.2,5.1,30.17,SW,225,8.1,8.1,13,0.00,CLR,,0.00,WeatherDisplay:10.37,2013-12-27 22:04:00,
2013-12-27 14:09:00,54.3,4.4,30.16,SW,225,6.9,6.9,13,0.00,CLR,,0.00,WeatherDisplay:10.37,2013-12-27 22:09:00,
2013-12-27 14:14:00,53.8,4.0,30.17,West,270,2.3,2.3,13,0.00,CLR,,0.00,WeatherDisplay:10.37,2013-12-27 22:14:00,
2013-12-27 14:19:00,55.8,5.6,30.17,SW,225,5.8,5.8,13,0.00,CLR,,0.00,WeatherDisplay:10.37,2013-12-27 22:19:00,
2013-12-27 14:24:00,54.3,4.4,30.17,SW,225,6.9,6.9,13,0.00,CLR,,0.00,WeatherDisplay:10.37,2013-12-27 22:24:00,
2013-12-27 14:29:00,52.7,3.1,30.18,South,180,12.7,12.7,13,0.00,CLR,,0.00,WeatherDisplay:10.37,2013-12-27 22:29:00,
2013-12-27 14:34:00,53.2,3.6,30.18,SSW,202,10.4,10.4,13,0.00,CLR,,0.00,WeatherDisplay:10.37,2013-12-27 22:34:00,
2013-12-27 14:39:00,54.0,4.1,30.18,SW,225,9.2,9.2,13,0.00,CLR,,0.00,WeatherDisplay:10.37,2013-12-27 22:39:00,
2013-12-27 14:44:00,54.3,4.4,30.18,South,180,6.9,6.9,13,0.00,CLR,,0.00,WeatherDisplay:10.37,2013-12-27 22:44:00,
2013-12-27 14:49:00,54.0,4.1,30.19,SSW,202,5.8,5.8,13,0.00,CLR,,0.00,WeatherDisplay:10.37,2013-12-27 22:49:00,
2013-12-27 14:54:00,56.8,6.4,30.19,West,270,4.6,4.6,13,0.00,CLR,,0.00,WeatherDisplay:10.37,2013-12-27 22:54:00,
2013-12-27 14:59:00,58.5,7.7,30.19,SW,225,4.6,4.6,13,0.00,CLR,,0.00,WeatherDisplay:10.37,2013-12-27 22:59:00,
2013-12-27 15:04:00,57.2,6.7,30.19,South,180,5.8,5.8,13,0.00,CLR,,0.00,WeatherDisplay:10.37,2013-12-27 23:04:00,
2013-12-27 15:09:00,56.3,6.0,30.19,SW,225,5.8,5.8,13,0.00,CLR,,0.00,WeatherDisplay:10.37,2013-12-27 23:09:00,
2013-12-27 15:14:00,54.5,4.6,30.20,SW,225,4.6,4.6,13,0.00,CLR,,0.00,WeatherDisplay:10.37,2013-12-27 23:14:00,
2013-12-27 15:19:00,53.8,4.0,30.20,SE,135,5.8,5.8,13,0.00,CLR,,0.00,WeatherDisplay:10.37,2013-12-27 23:19:00,
2013-12-27 15:24:00,53.2,3.6,30.21,South,180,6.9,6.9,13,0.00,CLR,,0.00,WeatherDisplay:10.37,2013-12-27 23:24:00,
2013-12-27 15:29:00,52.3,2.8,30.21,SSW,202,8.1,8.1,13,0.00,CLR,,0.00,WeatherDisplay:10.37,2013-12-27 23:29:00,
2013-12-27 15:34:00,52.0,2.6,30.20,South,180,5.8,5.8,13,0.00,CLR,,0.00,WeatherDisplay:10.37,2013-12-27 23:34:00,
2013-12-27 15:39:00,51.4,2.1,30.20,South,180,5.8,5.8,13,0.00,CLR,,0.00,WeatherDisplay:10.37,2013-12-27 23:39:00,
2013-12-27 15:44:00,51.3,2.0,30.21,South,180,3.5,3.5,13,0.00,CLR,,0.00,WeatherDisplay:10.37,2013-12-27 23:44:00,
2013-12-27 15:49:00,51.1,1.8,30.20,South,180,3.5,3.5,13,0.00,CLR,,0.00,WeatherDisplay:10.37,2013-12-27 23:49:00,
2013-12-27 15:54:00,51.3,2.0,30.20,South,180,3.5,3.5,13,0.00,CLR,,0.00,WeatherDisplay:10.37,2013-12-27 23:54:00,
2013-12-27 15:59:00,51.4,2.1,30.21,South,180,4.6,4.6,13,0.00,CLR,,0.00,WeatherDisplay:10.37,2013-12-27 23:59:00,
2013-12-27 16:04:00,51.4,2.1,30.21,SW,225,3.5,3.5,13,0.00,CLR,,0.00,WeatherDisplay:10.37,2013-12-28 00:04:00,
2013-12-27 16:09:00,51.4,2.1,30.21,SW,225,8.1,8.1,13,0.00,CLR,,0.00,WeatherDisplay:10.37,2013-12-28 00:09:00,
2013-12-27 16:14:00,51.1,1.8,30.21,South,180,6.9,6.9,13,0.00,CLR,,0.00,WeatherDisplay:10.37,2013-12-28 00:14:00,
2013-12-27 16:19:00,50.9,1.7,30.21,SSW,202,6.9,6.9,13,0.00,CLR,,0.00,WeatherDisplay:10.37,2013-12-28 00:19:00,
2013-12-27 16:24:00,50.7,1.6,30.21,SSW,202,3.5,3.5,13,0.00,CLR,,0.00,WeatherDisplay:10.37,2013-12-28 00:24:00,
2013-12-27 16:29:00,50.5,1.4,30.21,SE,135,3.5,3.5,13,0.00,CLR,,0.00,WeatherDisplay:10.37,2013-12-28 00:29:00,
2013-12-27 16:34:00,50.2,1.1,30.21,South,180,5.8,5.8,13,0.00,CLR,,0.00,WeatherDisplay:10.37,2013-12-28 00:34:00,
2013-12-27 16:39:00,49.8,0.8,30.20,South,180,3.5,3.5,13,0.00,CLR,,0.00,WeatherDisplay:10.37,2013-12-28 00:39:00,
2013-12-27 16:44:00,49.5,0.6,30.20,South,180,5.8,5.8,13,0.00,CLR,,0.00,WeatherDisplay:10.37,2013-12-28 00:44:00,
2013-12-27 16:49:00,49.1,0.3,30.21,SE,135,3.5,3.5,13,0.00,CLR,,0.00,WeatherDisplay:10.37,2013-12-28 00:49:00,
2013-12-27 16:54:00,48.7,0.0,30.20,South,180,2.3,0.0,13,0.00,CLR,,0.00,WeatherDisplay:10.37,2013-12-28 00:54:00,
2013-12-27 16:59:00,48.2,-0.5,30.21,SW,225,1.2,0.0,13,0.00,CLR,,0.00,WeatherDisplay:10.37,2013-12-28 00:59:00,
2013-12-27 17:04:00,47.1,-1.3,30.20,SE,135,3.5,3.5,13,0.00,CLR,,0.00,WeatherDisplay:10.37,2013-12-28 01:04:00,
2013-12-27 17:09:00,46.6,-1.7,30.20,South,180,1.2,0.0,13,0.00,CLR,,0.00,WeatherDisplay:10.37,2013-12-28 01:09:00,
2013-12-27 17:14:00,46.0,-2.2,30.20,North,0,1.2,0.0,13,0.00,CLR,,0.00,WeatherDisplay:10.37,2013-12-28 01:14:00,
2013-12-27 17:19:00,45.5,-2.6,30.20,West,270,0.0,0.0,13,0.00,CLR,,0.00,WeatherDisplay:10.37,2013-12-28 01:19:00,
2013-12-27 17:24:00,45.3,-2.7,30.21,North,0,1.2,0.0,13,0.00,CLR,,0.00,WeatherDisplay:10.37,2013-12-28 01:24:00,
2013-12-27 17:29:00,45.0,-3.0,30.20,SW,225,1.2,0.0,13,0.00,CLR,,0.00,WeatherDisplay:10.37,2013-12-28 01:29:00,
2013-12-27 17:34:00,44.6,-3.3,30.20,West,270,2.3,2.3,13,0.00,CLR,,0.00,WeatherDisplay:10.37,2013-12-28 01:34:00,
2013-12-27 17:39:00,44.2,-3.6,30.22,North,0,1.2,0.0,13,0.00,CLR,,0.00,WeatherDisplay:10.37,2013-12-28 01:39:00,
2013-12-27 17:44:00,43.5,-4.2,30.22,South,180,1.2,0.0,13,0.00,CLR,,0.00,WeatherDisplay:10.37,2013-12-28 01:44:00,
2013-12-27 17:49:00,43.0,-0.2,30.22,South,180,1.2,0.0,16,0.00,CLR,,0.00,WeatherDisplay:10.37,2013-12-28 01:49:00,
2013-12-27 17:54:00,42.6,25.3,30.22,South,180,1.2,0.0,50,0.00,CLR,,0.00,WeatherDisplay:10.37,2013-12-28 01:54:00,
2013-12-27 17:59:00,42.4,25.6,30.22,South,180,0.0,0.0,51,0.00,CLR,,0.00,WeatherDisplay:10.37,2013-12-28 01:59:00,
2013-12-27 18:04:00,42.1,25.7,30.22,South,180,0.0,0.0,52,0.00,CLR,,0.00,WeatherDisplay:10.37,2013-12-28 02:04:00,
2013-12-27 18:09:00,41.9,25.1,30.22,South,180,0.0,0.0,51,0.00,CLR,,0.00,WeatherDisplay:10.37,2013-12-28 02:09:00,
2013-12-27 18:14:00,41.5,26.1,30.22,South,180,1.2,0.0,54,0.00,CLR,,0.00,WeatherDisplay:10.37,2013-12-28 02:14:00,
2013-12-27 18:19:00,41.4,27.3,30.22,West,270,1.2,0.0,57,0.00,CLR,,0.00,WeatherDisplay:10.37,2013-12-28 02:19:00,
2013-12-27 18:24:00,41.4,25.5,30.22,SW,225,1.2,1.2,53,0.00,CLR,,0.00,WeatherDisplay:10.37,2013-12-28 02:24:00,
2013-12-27 18:29:00,41.0,21.3,30.23,SW,225,0.0,0.0,45,0.00,CLR,,0.00,WeatherDisplay:10.37,2013-12-28 02:29:00,
2013-12-27 18:34:00,40.5,18.6,30.23,SW,225,1.2,0.0,41,0.00,CLR,,0.00,WeatherDisplay:10.37,2013-12-28 02:34:00,
2013-12-27 18:39:00,40.3,16.7,30.23,SW,225,0.0,0.0,38,0.00,CLR,,0.00,WeatherDisplay:10.37,2013-12-28 02:39:00,
2013-12-27 18:44:00,40.3,16.7,30.24,SW,225,1.2,0.0,38,0.00,CLR,,0.00,WeatherDisplay:10.37,2013-12-28 02:44:00,
2013-12-27 18:49:00,39.9,16.3,30.24,South,180,1.2,0.0,38,0.00,CLR,,0.00,WeatherDisplay:10.37,2013-12-28 02:49:00,
2013-12-27 18:54:00,39.4,14.6,30.24,South,180,0.0,0.0,36,0.00,CLR,,0.00,WeatherDisplay:10.37,2013-12-28 02:54:00,
2013-12-27 18:59:00,39.4,15.8,30.24,SW,225,0.0,0.0,38,0.00,CLR,,0.00,WeatherDisplay:10.37,2013-12-28 02:59:00,
2013-12-27 19:04:00,39.2,16.3,30.25,SW,225,1.2,0.0,39,0.00,CLR,,0.00,WeatherDisplay:10.37,2013-12-28 03:04:00,
2013-12-27 19:09:00,38.8,16.5,30.24,SW,225,0.0,0.0,40,0.00,CLR,,0.00,WeatherDisplay:10.37,2013-12-28 03:09:00,
2013-12-27 19:14:00,38.5,15.0,30.24,South,180,1.6,1.6,38,0.00,CLR,,0.00,WeatherDisplay:10.37,2013-12-28 03:14:00,
2013-12-27 19:19:00,38.1,14.1,30.24,NW,315,1.2,1.2,37,0.00,CLR,,0.00,WeatherDisplay:10.37,2013-12-28 03:19:00,
2013-12-27 19:24:00,37.9,10.7,30.24,West,270,1.2,0.0,32,0.00,CLR,,0.00,WeatherDisplay:10.37,2013-12-28 03:24:00,
2013-12-27 19:29:00,38.3,-6.8,30.24,North,0,1.2,0.0,14,0.00,CLR,,0.00,WeatherDisplay:10.37,2013-12-28 03:29:00,
2013-12-27 19:34:00,38.1,-7.0,30.24,NE,45,0.0,0.0,14,0.00,CLR,,0.00,WeatherDisplay:10.37,2013-12-28 03:34:00,
2013-12-27 19:39:00,37.8,-7.3,30.24,NE,45,1.2,0.0,14,0.00,CLR,,0.00,WeatherDisplay:10.37,2013-12-28 03:39:00,
2013-12-27 19:44:00,37.6,-7.4,30.24,NE,45,0.0,0.0,14,0.00,CLR,,0.00,WeatherDisplay:10.37,2013-12-28 03:44:00,
2013-12-27 19:49:00,37.8,-7.3,30.25,South,180,1.2,1.2,14,0.00,CLR,,0.00,WeatherDisplay:10.37,2013-12-28 03:49:00,
2013-12-27 19:54:00,37.4,-7.6,30.24,West,270,2.3,2.3,14,0.00,CLR,,0.00,WeatherDisplay:10.37,2013-12-28 03:54:00,
2013-12-27 19:59:00,37.6,-7.4,30.24,West,270,1.2,1.2,14,0.00,CLR,,0.00,WeatherDisplay:10.37,2013-12-28 03:59:00,
2013-12-27 20:04:00,38.1,-7.0,30.24,South,180,0.0,0.0,14,0.00,CLR,,0.00,WeatherDisplay:10.37,2013-12-28 04:04:00,
2013-12-27 20:09:00,37.9,-7.1,30.24,SW,225,0.0,0.0,14,0.00,CLR,,0.00,WeatherDisplay:10.37,2013-12-28 04:09:00,
2013-12-27 20:14:00,37.9,-7.1,30.24,SW,225,0.0,0.0,14,0.00,CLR,,0.00,WeatherDisplay:10.37,2013-12-28 04:14:00,
2013-12-27 20:19:00,38.1,-7.0,30.24,SW,225,1.2,0.0,14,0.00,CLR,,0.00,WeatherDisplay:10.37,2013-12-28 04:19:00,
2013-12-27 20:24:00,38.1,-7.0,30.24,West,270,1.2,0.0,14,0.00,CLR,,0.00,WeatherDisplay:10.37,2013-12-28 04:24:00,
2013-12-27 20:29:00,38.3,-6.8,30.25,West,270,1.2,0.0,14,0.00,CLR,,0.00,WeatherDisplay:10.37,2013-12-28 04:29:00,
2013-12-27 20:34:00,38.3,-6.8,30.24,West,270,0.0,0.0,14,0.00,CLR,,0.00,WeatherDisplay:10.37,2013-12-28 04:34:00,
2013-12-27 20:39:00,38.1,-7.0,30.25,West,270,1.2,1.2,14,0.00,CLR,,0.00,WeatherDisplay:10.37,2013-12-28 04:39:00,
2013-12-27 20:44:00,38.3,-6.8,30.25,South,180,1.2,1.2,14,0.00,CLR,,0.00,WeatherDisplay:10.37,2013-12-28 04:44:00,
2013-12-27 20:49:00,38.3,-6.8,30.25,South,180,1.2,0.0,14,0.00,CLR,,0.00,WeatherDisplay:10.37,2013-12-28 04:49:00,
2013-12-27 20:54:00,38.3,-6.8,30.26,South,180,0.0,0.0,14,0.00,CLR,,0.00,WeatherDisplay:10.37,2013-12-28 04:54:00,
2013-12-27 20:59:00,38.5,-6.7,30.26,South,180,1.2,0.0,14,0.00,CLR,,0.00,WeatherDisplay:10.37,2013-12-28 04:59:00,
2013-12-27 21:01:00,38.5,-6.7,30.26,South,180,1.2,0.0,14,0.00,CLR,,0.00,WeatherDisplay:10.37,2013-12-28 05:01:00,
2013-12-27 21:02:00,38.5,-6.7,30.26,South,180,0.0,0.0,14,0.00,CLR,,0.00,WeatherDisplay:10.37,2013-12-28 05:02:00,
2013-12-27 21:03:00,38.5,-6.7,30.26,South,180,0.0,0.0,14,0.00,CLR,,0.00,WeatherDisplay:10.37,2013-12-28 05:03:00,
2013-12-27 21:04:00,38.7,-6.5,30.26,South,180,0.0,0.0,14,0.00,CLR,,0.00,WeatherDisplay:10.37,2013-12-28 05:04:00,
2013-12-27 21:07:00,38.7,-6.5,30.26,South,180,0.0,0.0,14,0.00,CLR,,0.00,WeatherDisplay:10.37,2013-12-28 05:07:00,
2013-12-27 21:12:00,38.8,-6.4,30.26,NW,315,1.2,0.0,14,0.00,CLR,,0.00,WeatherDisplay:10.37,2013-12-28 05:12:00,
2013-12-27 21:17:00,39.0,-6.3,30.26,South,180,1.2,1.2,14,0.00,CLR,,0.00,WeatherDisplay:10.37,2013-12-28 05:17:00,
2013-12-27 21:22:00,39.0,-6.3,30.26,South,180,0.0,0.0,14,0.00,CLR,,0.00,WeatherDisplay:10.37,2013-12-28 05:22:00,
2013-12-27 21:27:00,39.0,-6.3,30.26,West,270,1.2,0.0,14,0.00,CLR,,0.00,WeatherDisplay:10.37,2013-12-28 05:27:00,
2013-12-27 21:32:00,39.0,-6.3,30.26,SW,225,1.2,1.2,14,0.00,CLR,,0.00,WeatherDisplay:10.37,2013-12-28 05:32:00,
2013-12-27 21:37:00,39.0,-6.3,30.26,SW,225,0.0,0.0,14,0.00,CLR,,0.00,WeatherDisplay:10.37,2013-12-28 05:37:00,
2013-12-27 21:42:00,39.2,-6.1,30.26,SW,225,1.2,0.0,14,0.00,CLR,,0.00,WeatherDisplay:10.37,2013-12-28 05:42:00,
2013-12-27 21:47:00,39.4,-6.0,30.26,SW,225,0.0,0.0,14,0.00,CLR,,0.00,WeatherDisplay:10.37,2013-12-28 05:47:00,
2013-12-27 21:52:00,39.6,-5.8,30.27,South,180,1.2,0.0,14,0.00,CLR,,0.00,WeatherDisplay:10.37,2013-12-28 05:52:00,
2013-12-27 21:57:00,39.6,-5.8,30.27,South,180,0.0,0.0,14,0.00,CLR,,0.00,WeatherDisplay:10.37,2013-12-28 05:57:00,
2013-12-27 22:02:00,39.7,-5.7,30.27,South,180,0.0,0.0,14,0.00,CLR,,0.00,WeatherDisplay:10.37,2013-12-28 06:02:00,
2013-12-27 22:07:00,39.9,-5.5,30.27,South,180,0.0,0.0,14,0.00,CLR,,0.00,WeatherDisplay:10.37,2013-12-28 06:07:00,
2013-12-27 22:12:00,39.9,-5.5,30.27,West,270,1.2,1.2,14,0.00,CLR,,0.00,WeatherDisplay:10.37,2013-12-28 06:12:00,
2013-12-27 22:17:00,40.3,-5.2,30.27,SW,225,1.2,0.0,14,0.00,CLR,,0.00,WeatherDisplay:10.37,2013-12-28 06:17:00,
2013-12-27 22:22:00,40.1,-5.4,30.27,SW,225,1.2,0.0,14,0.00,CLR,,0.00,WeatherDisplay:10.37,2013-12-28 06:22:00,
2013-12-27 22:27:00,39.9,-5.5,30.27,NW,315,2.3,2.3,14,0.00,CLR,,0.00,WeatherDisplay:10.37,2013-12-28 06:27:00,
2013-12-27 22:32:00,40.1,-5.4,30.28,South,180,0.0,0.7,14,0.00,CLR,,0.00,WeatherDisplay:10.37,2013-12-28 06:32:00,
2013-12-27 22:37:00,40.1,-5.4,30.28,SW,225,0.0,0.0,14,0.00,CLR,,0.00,WeatherDisplay:10.37,2013-12-28 06:37:00,
2013-12-27 22:42:00,40.1,-5.4,30.28,SW,225,1.2,0.0,14,0.00,CLR,,0.00,WeatherDisplay:10.37,2013-12-28 06:42:00,
2013-12-27 22:47:00,39.9,-5.5,30.28,South,180,1.2,0.0,14,0.00,CLR,,0.00,WeatherDisplay:10.37,2013-12-28 06:47:00,
2013-12-27 22:52:00,39.9,-5.5,30.28,South,180,1.2,0.0,14,0.00,CLR,,0.00,WeatherDisplay:10.37,2013-12-28 06:52:00,
2013-12-27 22:57:00,40.1,-5.4,30.29,SW,225,1.2,0.0,14,0.00,CLR,,0.00,WeatherDisplay:10.37,2013-12-28 06:57:00,
2013-12-27 23:02:00,40.3,-5.2,30.29,SW,225,1.2,0.0,14,0.00,CLR,,0.00,WeatherDisplay:10.37,2013-12-28 07:02:00,
2013-12-27 23:07:00,40.6,-5.0,30.29,South,180,1.2,0.0,14,0.00,CLR,,0.00,WeatherDisplay:10.37,2013-12-28 07:07:00,
2013-12-27 23:12:00,40.6,-5.0,30.29,West,270,1.2,0.0,14,0.00,CLR,,0.00,WeatherDisplay:10.37,2013-12-28 07:12:00,
2013-12-27 23:17:00,40.6,-5.0,30.29,South,180,1.2,1.2,14,0.00,CLR,,0.00,WeatherDisplay:10.37,2013-12-28 07:17:00,
2013-12-27 23:22:00,40.5,-5.1,30.29,South,180,3.5,3.5,14,0.00,CLR,,0.00,WeatherDisplay:10.37,2013-12-28 07:22:00,
2013-12-27 23:27:00,40.5,-5.1,30.30,West,270,2.3,0.0,14,0.00,CLR,,0.00,WeatherDisplay:10.37,2013-12-28 07:27:00,
2013-12-27 23:32:00,40.8,-4.8,30.29,East,90,1.2,1.2,14,0.00,CLR,,0.00,WeatherDisplay:10.37,2013-12-28 07:32:00,
2013-12-27 23:37:00,41.2,-4.5,30.29,North,0,1.2,0.0,14,0.00,CLR,,0.00,WeatherDisplay:10.37,2013-12-28 07:37:00,
2013-12-27 23:42:00,41.5,-4.2,30.30,East,90,2.3,2.3,14,0.00,CLR,,0.00,WeatherDisplay:10.37,2013-12-28 07:42:00,
2013-12-27 23:47:00,41.7,-4.1,30.29,East,90,2.3,2.3,14,0.00,CLR,,0.00,WeatherDisplay:10.37,2013-12-28 07:47:00,
2013-12-27 23:52:00,42.3,-3.6,30.30,East,90,2.3,0.0,14,0.00,CLR,,0.00,WeatherDisplay:10.37,2013-12-28 07:52:00,
2013-12-27 23:57:00,43.0,-3.1,30.30,South,180,2.3,2.3,14,0.00,CLR,,0.00,WeatherDisplay:10.37,2013-12-28 07:57:00,